Change the Weather History Date:

Tuesday, March 5, 2013

  Actual Average Record
Temperature  
Mean Temperature 18 °F -  
Max Temperature 21 °F 24 °F 46 °F (2009)
Min Temperature 15 °F 4 °F -29 °F (2003)
Degree Days  
Heating Degree Days 47    
Moisture  
Dew Point 12 °F    
Average Humidity 76    
Maximum Humidity 93    
Minimum Humidity 63    
Precipitation  
Precipitation 0.00 in - - ()
Sea Level Pressure  
Sea Level Pressure 30.16 in    
Wind  
Wind Speed 6 mph (NE)    
Max Wind Speed 12 mph    
Max Gust Speed 17 mph    
Visibility 8 miles    
Events Snow    
Averages and records for this station are not official NWS values.
T = Trace of Precipitation, MM = Missing Value Source: NWS Daily Summary

Daily Weather History Graph

Daily Weather History Graph

Search for Another Location

Airport or City:

Trip Planner

Search our weather history database for the weather conditions in past years. The results will help you decide how hot, cold, wet, or windy it might be!

Date:

Astronomy

Mar. 05, 2013 Rise Set
Actual Time 6:39 AM CST 5:58 PM CST
Civil Twilight 6:08 AM CST 6:29 PM CST
Nautical Twilight 5:33 AM CST 7:05 PM CST
Astronomical Twilight 4:57 AM CST 7:41 PM CST
Moon 2:11 AM CST (3/5) 11:18 AM CST (3/5)
Length of Visible Light 12h 20m
Length of Day
11h 18m
Last Quarter, 40% of the Moon is Illuminated
Mar 5
Last Quarter
Mar 11
New
Mar 19
First Quarter
Mar 27
Full
Apr 2
Last Quarter

Hourly Weather History & Observations

Time (CST) Temp. Windchill Dew Point Humidity Pressure Visibility Wind Dir Wind Speed Gust Speed Precip Events Conditions
12:13 AM 19.4 °F 11.5 °F 15.8 °F 86% 30.10 in 10.0 mi ENE 5.8 mph - N/A Snow Light Snow
12:33 AM 19.4 °F 12.8 °F 15.8 °F 86% 30.09 in 4.0 mi ENE 4.6 mph - N/A Snow Light Snow
12:53 AM 19.4 °F 12.8 °F 15.8 °F 86% 30.10 in 7.0 mi ENE 4.6 mph - N/A Snow Light Snow
1:12 AM 19.4 °F 10.4 °F 15.8 °F 86% 30.10 in 7.0 mi ENE 6.9 mph - N/A Snow Light Snow
1:33 AM 19.4 °F 10.4 °F 15.8 °F 86% 30.10 in 4.0 mi ENE 6.9 mph - N/A Snow Light Snow
1:53 AM 19.4 °F 10.4 °F 17.6 °F 93% 30.09 in 4.0 mi ENE 6.9 mph - N/A Snow Light Snow
2:12 AM 19.4 °F 12.8 °F 17.6 °F 93% 30.09 in 3.0 mi ENE 4.6 mph - N/A Snow Light Snow
2:33 AM 19.4 °F 10.4 °F 17.6 °F 93% 30.09 in 3.0 mi ENE 6.9 mph - N/A Snow Light Snow
2:53 AM 19.4 °F 11.5 °F 17.6 °F 93% 30.08 in 4.0 mi ENE 5.8 mph - N/A Snow Light Snow
3:12 AM 19.4 °F 12.8 °F 17.6 °F 93% 30.08 in 4.0 mi NE 4.6 mph - N/A Snow Light Snow
3:33 AM 19.4 °F 14.3 °F 17.6 °F 93% 30.09 in 10.0 mi ENE 3.5 mph - N/A Snow Light Snow
3:52 AM 19.4 °F 11.5 °F 15.8 °F 86% 30.08 in 10.0 mi NE 5.8 mph - N/A   Overcast
4:13 AM 17.6 °F 8.2 °F 15.8 °F 93% 30.08 in 10.0 mi NE 6.9 mph - N/A   Overcast
4:32 AM 17.6 °F 8.2 °F 14.0 °F 86% 30.08 in 7.0 mi NE 6.9 mph - N/A Snow Light Snow
4:53 AM 17.6 °F 8.2 °F 14.0 °F 86% 30.09 in 7.0 mi NE 6.9 mph - N/A Snow Light Snow
5:13 AM 17.6 °F 10.7 °F 12.2 °F 79% 30.09 in 7.0 mi NNE 4.6 mph - N/A Snow Light Snow
5:32 AM 17.6 °F 10.7 °F 12.2 °F 79% 30.10 in 10.0 mi NE 4.6 mph - N/A   Overcast
5:53 AM 17.6 °F 8.2 °F 12.2 °F 79% 30.10 in 10.0 mi NE 6.9 mph - N/A   Overcast
6:13 AM 17.6 °F 9.3 °F 12.2 °F 79% 30.11 in 7.0 mi NE 5.8 mph - N/A Snow Light Snow
6:32 AM 17.6 °F 8.2 °F 12.2 °F 79% 30.11 in 10.0 mi NE 6.9 mph - N/A   Overcast
6:53 AM 17.6 °F 8.2 °F 12.2 °F 79% 30.12 in 10.0 mi NE 6.9 mph - N/A   Overcast
7:13 AM 17.6 °F 10.7 °F 12.2 °F 79% 30.13 in 10.0 mi NE 4.6 mph - N/A   Overcast
7:32 AM 17.6 °F 9.3 °F 12.2 °F 79% 30.13 in 10.0 mi NE 5.8 mph - N/A   Overcast
7:53 AM 17.6 °F 9.3 °F 12.2 °F 79% 30.13 in 10.0 mi NE 5.8 mph - N/A   Overcast
8:13 AM 17.6 °F 8.2 °F 12.2 °F 79% 30.14 in 10.0 mi NE 6.9 mph - N/A   Overcast
8:32 AM 17.6 °F 10.7 °F 12.2 °F 79% 30.14 in 10.0 mi NE 4.6 mph - N/A   Overcast
8:53 AM 17.6 °F 7.3 °F 12.2 °F 79% 30.15 in 10.0 mi NE 8.1 mph - N/A   Overcast
9:13 AM 17.6 °F 7.3 °F 12.2 °F 79% 30.15 in 10.0 mi NE 8.1 mph - N/A   Overcast
9:32 AM 17.6 °F 6.4 °F 12.2 °F 79% 30.16 in 3.0 mi NE 9.2 mph - N/A Snow Light Snow
9:53 AM 17.6 °F 9.3 °F 12.2 °F 79% 30.16 in 2.5 mi NE 5.8 mph - N/A Snow Light Snow
10:13 AM 17.6 °F 5.7 °F 12.2 °F 79% 30.17 in 10.0 mi NE 10.4 mph - N/A   Overcast
10:32 AM 17.6 °F 6.4 °F 10.4 °F 73% 30.17 in 10.0 mi NE 9.2 mph 16.1 mph N/A   Mostly Cloudy
10:53 AM 17.6 °F 7.3 °F 10.4 °F 73% 30.17 in 10.0 mi ENE 8.1 mph - N/A   Scattered Clouds
11:13 AM 17.6 °F 5.0 °F 10.4 °F 73% 30.18 in 10.0 mi NE 11.5 mph 16.1 mph N/A   Scattered Clouds
11:32 AM 17.6 °F 5.7 °F 10.4 °F 73% 30.18 in 10.0 mi NE 10.4 mph 16.1 mph N/A   Scattered Clouds
11:53 AM 19.4 °F 7.2 °F 10.4 °F 68% 30.17 in 10.0 mi NE 11.5 mph 17.3 mph N/A   Scattered Clouds
12:13 PM 19.4 °F 8.6 °F 10.4 °F 68% 30.18 in 10.0 mi ENE 9.2 mph - N/A   Clear
12:32 PM 19.4 °F 7.2 °F 12.2 °F 74% 30.18 in 5.0 mi NE 11.5 mph 17.3 mph N/A   Haze
12:53 PM 19.4 °F 10.4 °F 12.2 °F 74% 30.18 in 4.0 mi NE 6.9 mph 16.1 mph N/A Snow Light Snow
1:13 PM 19.4 °F 10.4 °F 12.2 °F 74% 30.18 in 10.0 mi NE 6.9 mph - N/A   Clear
1:33 PM 21.2 °F 12.6 °F 12.2 °F 68% 30.17 in 10.0 mi NNE 6.9 mph - N/A   Clear
1:52 PM 19.4 °F 8.6 °F 10.4 °F 68% 30.17 in 7.0 mi NNE 9.2 mph - N/A   Clear
2:13 PM 19.4 °F 11.5 °F 12.2 °F 74% 30.17 in 7.0 mi North 5.8 mph - N/A Snow Light Snow
2:33 PM 19.4 °F 12.8 °F 10.4 °F 68% 30.17 in 10.0 mi North 4.6 mph - N/A   Clear
2:52 PM 19.4 °F 10.4 °F 10.4 °F 68% 30.17 in 5.0 mi NNE 6.9 mph - N/A Snow Light Snow
3:13 PM 21.2 °F 13.6 °F 10.4 °F 63% 30.17 in 10.0 mi NNE 5.8 mph - N/A   Clear
3:33 PM 21.2 °F 13.6 °F 10.4 °F 63% 30.18 in 7.0 mi NE 5.8 mph - N/A Snow Light Snow
3:52 PM 21.2 °F 13.6 °F 10.4 °F 63% 30.18 in 4.0 mi North 5.8 mph - N/A Snow Light Snow
4:13 PM 21.2 °F 16.4 °F 10.4 °F 63% 30.19 in 4.0 mi NNE 3.5 mph - N/A Snow Light Snow
4:33 PM 21.2 °F 11.7 °F 10.4 °F 63% 30.19 in 7.0 mi NE 8.1 mph - N/A   Clear
4:52 PM 21.2 °F 13.6 °F 10.4 °F 63% 30.19 in 10.0 mi NE 5.8 mph - N/A   Clear
5:13 PM 21.2 °F 13.6 °F 10.4 °F 63% 30.20 in 10.0 mi NE 5.8 mph - N/A   Clear
5:33 PM 21.2 °F 14.9 °F 10.4 °F 63% 30.20 in 10.0 mi NE 4.6 mph - N/A   Scattered Clouds
5:52 PM 21.2 °F 16.4 °F 10.4 °F 63% 30.21 in 10.0 mi ENE 3.5 mph - N/A   Scattered Clouds
6:13 PM 19.4 °F 14.3 °F 10.4 °F 68% 30.21 in 10.0 mi NE 3.5 mph - N/A   Clear
6:33 PM 19.4 °F 12.8 °F 10.4 °F 68% 30.21 in 10.0 mi NNE 4.6 mph - N/A   Clear
6:52 PM 19.4 °F 14.3 °F 12.2 °F 74% 30.22 in 5.0 mi NNE 3.5 mph - N/A Snow Light Snow
7:13 PM 19.4 °F 12.8 °F 14.0 °F 80% 30.22 in 4.0 mi NE 4.6 mph - N/A Snow Light Snow
7:33 PM 17.6 °F 10.7 °F 14.0 °F 86% 30.22 in 3.0 mi North 4.6 mph - N/A Snow Light Snow
7:52 PM 17.6 °F - 12.2 °F 79% 30.22 in 7.0 mi Calm Calm - N/A Snow Light Snow
8:13 PM 17.6 °F 12.3 °F 10.4 °F 73% 30.23 in 10.0 mi NNW 3.5 mph - N/A   Mostly Cloudy
8:33 PM 19.4 °F 14.3 °F 8.6 °F 63% 30.23 in 10.0 mi North 3.5 mph - N/A   Mostly Cloudy
8:52 PM 19.4 °F 11.5 °F 8.6 °F 63% 30.23 in 10.0 mi North 5.8 mph - N/A Snow Light Snow
9:13 PM 17.6 °F 10.7 °F 8.6 °F 68% 30.23 in 10.0 mi North 4.6 mph - N/A Snow Light Snow
9:33 PM 17.6 °F 12.3 °F 8.6 °F 68% 30.24 in 10.0 mi NNE 3.5 mph - N/A   Overcast
9:52 PM 17.6 °F - 8.6 °F 68% 30.24 in 10.0 mi Calm Calm - N/A   Overcast
10:13 PM 17.6 °F - 8.6 °F 68% 30.24 in 10.0 mi Calm Calm - N/A   Overcast
10:33 PM 17.6 °F 12.3 °F 8.6 °F 68% 30.25 in 10.0 mi North 3.5 mph - N/A   Overcast
10:52 PM 17.6 °F 12.3 °F 8.6 °F 68% 30.25 in 10.0 mi NNE 3.5 mph - N/A   Overcast
11:13 PM 17.6 °F 12.3 °F 8.6 °F 68% 30.24 in 5.0 mi NE 3.5 mph - N/A Snow Light Snow
11:33 PM 15.8 °F - 10.4 °F 79% 30.24 in 2.0 mi Calm Calm - N/A Snow Light Snow
11:52 PM 15.8 °F - 12.2 °F 86% 30.24 in 1.8 mi Calm Calm - N/A Snow Light Snow